Date,TemperatureHighF,TemperatureAvgF,TemperatureLowF,DewpointHighF,DewpointAvgF,DewpointLowF,HumidityHigh,HumidityAvg,HumidityLow,PressureMaxIn,PressureMinIn,WindSpeedMaxMPH,WindSpeedAvgMPH,GustSpeedMaxMPH,PrecipitationSumIn
2013-1-1,23,14,0,5,-4,-8,80,50,28,30.47,30.25,26,10,26,0.00
2013-1-2,25,16,4,-3,-6,-10,53,36,24,30.54,30.27,24,8,24,0.00
2013-1-3,39,13,-8,-1,-8,-15,73,45,11,30.79,30.35,17,3,17,0.00
2013-1-4,45,19,2,11,2,-6,75,52,22,30.64,30.17,8,2,8,0.00
2013-1-5,42,20,0,10,-2,-12,74,42,16,30.58,30.17,24,6,24,0.00
2013-1-6,50,28,-1,1,-7,-13,58,28,8,30.52,29.78,28,7,28,0.00
2013-1-7,47,38,28,0,-7,-15,27,14,8,30.08,29.71,34,12,34,0.00
2013-1-8,36,33,30,14,10,-8,46,38,16,30.22,29.67,39,20,39,0.00
2013-1-9,54,39,24,13,8,0,44,29,12,30.35,29.96,24,7,24,0.00
2013-1-10,48,30,15,12,4,-6,59,37,11,30.06,29.46,27,7,27,0.00
2013-1-11,31,19,10,20,1,-14,77,46,26,29.89,29.23,43,17,43,0.00
2013-1-12,17,7,-3,-1,-11,-17,75,47,23,30.35,29.90,29,9,29,0.00
2013-1-13,11,-1,-10,-2,-9,-17,73,68,53,30.56,30.28,13,3,13,0.00
2013-1-14,16,-1,-14,-3,-14,-21,73,57,26,30.67,30.29,22,5,22,0.00
2013-1-15,32,20,3,14,-1,-22,50,38,23,30.51,30.15,24,9,24,0.00
2013-1-16,50,32,16,15,12,8,74,46,24,30.46,30.06,24,8,24,0.00
2013-1-17,51,28,6,13,6,-2,83,48,16,30.74,30.12,32,5,32,0.00
2013-1-18,45,38,33,3,1,-1,25,21,16,30.24,30.01,40,21,40,0.00
2013-1-19,48,39,32,1,-3,-9,24,17,10,30.22,29.99,31,15,31,0.00
2013-1-20,43,34,18,8,0,-7,60,26,14,30.35,30.02,34,12,34,0.00
2013-1-21,43,36,31,7,1,-9,29,22,12,30.26,30.00,39,21,39,0.00
2013-1-22,51,43,37,-7,-12,-18,14,9,6,30.10,29.93,46,24,46,0.00
2013-1-23,57,47,42,-2,-9,-20,14,9,6,30.07,29.91,36,16,36,0.00
2013-1-24,50,43,34,24,8,-8,51,26,11,30.00,29.84,43,22,43,0.00
2013-1-25,50,42,38,25,22,18,52,44,32,30.07,29.88,34,16,34,0.00
2013-1-26,52,41,30,29,22,14,89,49,24,29.90,29.64,31,9,31,0.00
2013-1-27,48,37,27,28,20,13,91,56,27,29.77,29.59,33,11,33,0.01
2013-1-28,45,31,19,26,16,11,85,55,27,29.70,29.49,33,9,33,0.00
2013-1-29,24,16,5,15,-3,-9,85,44,26,30.20,29.67,30,10,30,0.00
2013-1-30,28,22,10,12,3,-10,56,43,31,30.10,29.88,41,20,41,0.00
2013-1-31,35,30,27,16,11,7,63,45,31,30.17,29.89,43,22,43,0.00